FW1436 Weather Reports


time (UTC)temp
F
wind
direction
speed
knots
gust
knots
rain 1hr
in
rain 24hr
in
rain mn
in
humidity
%
barometer
mb
20260505051534 49 162 0.0 0.0 0.00 0.00 0.00 77 1009.7
20260505041520 49 236 0.0 0.9 0.00 0.00 0.00 75 1009.7
20260505040015 49 82 0.0 0.0 0.00 0.00 0.00 82 1009.8
20260505034512 49 20 0.0 0.0 0.00 0.00 0.00 82 1009.7
20260505033009 51 240 0.0 0.0 0.00 0.00 0.00 79 1009.8
20260505031509 51 245 0.0 0.0 0.00 0.00 0.00 68 1009.7
20260505030007 52 245 0.0 0.9 0.00 0.00 0.00 67 1009.8
20260505024507 51 233 0.0 0.9 0.00 0.00 0.00 70 1009.9
20260505023012 51 233 0.0 0.0 0.00 0.00 0.00 76 1009.9
20260505021505 53 233 0.0 1.7 0.00 0.00 0.00 66 1009.9
20260505020003 51 267 0.0 0.0 0.00 0.00 0.00 73 1010.0
20260505014502 51 127 0.0 0.9 0.00 0.00 0.00 77 1010.1
20260505013059 52 127 0.0 0.9 0.00 0.00 0.00 71 1010.1
20260505011558 52 255 0.0 0.9 0.00 0.00 0.00 68 1010.1
20260505010116 52 237 0.0 0.0 0.00 0.00 0.00 68 1010.1
20260505004556 52 237 0.0 1.7 0.00 0.00 0.00 68 1010.2
20260505003058 52 229 0.0 1.7 0.00 0.00 0.00 69 1010.4
20260505001552 53 114 0.0 0.9 0.00 0.00 0.00 70 1010.5
20260505000050 54 259 0.0 0.9 0.00 0.00 0.00 64 1010.4
20260504234548 54 297 0.0 1.7 0.00 0.00 0.00 62 1010.4
20260504233048 54 292 0.0 1.7 0.00 0.00 0.00 63 1010.4
20260504231548 54 290 0.0 3.5 0.00 0.00 0.00 64 1010.3
20260504230049 54 291 0.9 3.5 0.00 0.00 0.00 65 1010.3
20260504224544 54 254 0.0 1.7 0.00 0.00 0.00 67 1010.2
20260504223057 54 243 0.0 2.6 0.00 0.00 0.00 67 1010.3
20260504221555 54 274 0.0 4.3 0.00 0.00 0.00 67 1010.4
20260504220038 55 261 0.0 2.6 0.00 0.00 0.00 67 1010.5
20260504214536 55 279 0.0 3.5 0.00 0.00 0.00 66 1010.5
20260504213047 55 249 0.0 3.5 0.00 0.00 0.00 65 1010.6
20260504211539 56 272 0.9 4.3 0.00 0.00 0.00 62 1010.5
20260504210033 56 298 1.7 4.3 0.00 0.00 0.00 61 1010.3
20260504204531 57 293 0.9 4.3 0.00 0.00 0.00 60 1010.2
20260504203043 57 301 2.6 11.3 0.00 0.00 0.00 56 1010.1
20260504201529 57 304 1.7 9.6 0.00 0.00 0.00 61 1009.9
20260504200029 56 250 1.7 6.1 0.00 0.00 0.00 65 1009.9
20260504194534 56 293 1.7 7.0 0.00 0.00 0.00 66 1009.8
20260504193026 57 252 1.7 5.2 0.00 0.00 0.00 63 1009.5
20260504191535 57 307 0.9 4.3 0.00 0.00 0.00 62 1009.2
20260504190024 57 278 0.9 6.1 0.00 0.00 0.00 61 1009.2
20260504184524 58 266 0.9 6.1 0.00 0.00 0.00 60 1009.1
20260504183024 59 311 1.7 5.2 0.00 0.00 0.00 59 1009.2
20260504181524 58 276 2.6 9.6 0.00 0.00 0.00 61 1009.1
20260504180023 59 275 3.5 8.7 0.00 0.00 0.00 60 1009.0
20260504174522 59 315 4.3 8.7 0.00 0.00 0.00 59 1009.0
20260504173022 60 315 4.3 10.4 0.00 0.00 0.00 59 1008.9
20260504171529 61 328 4.3 7.8 0.00 0.00 0.00 59 1008.7
20260504081529 54 257 0.0 1.7 0.00 0.00 0.00 78 1009.9